Location: Colebrook
(42.0017°N, 73.0973°W)
Time: 03:47:00
(UTC-04:00)

Amateur Radio Satellites - All Passes

Search period start: 28 June 2016 03:17
Search period end: 29 June 2016 03:17
Location: Colebrook, 42.0017°N, 73.0973°W

Satellite Date Start Highest point End Downlink Frequencies (MHz)
Time Altitude Azimuth
Cosmos 2491 28 Jun 03:20:41 03:26:27 19° 299° (WNW) 03:32:15 435.465 / 435.565
AIST 1 28 Jun 03:30:47 03:33:40 18° 71° (ENE) 03:36:33
PCSat 28 Jun 03:43:47 03:48:41 34° 310° (NW) 03:53:37 145.827
O/OREOS (USA 219) 28 Jun 03:44:22 03:48:41 45° 297° (WNW) 03:53:01 437.305
AO-7 28 Jun 03:45:16 03:52:35 32° 96° (E) 03:59:49 29.400- 29.500
Cosmos 2504 28 Jun 03:46:07 03:51:25 18° 284° (WNW) 03:56:36 435.465 / 435.565
MOZHAYETS 4 28 Jun 03:47:26 03:52:01 70° 75° (ENE) 03:56:40
Oscar 19 28 Jun 03:57:57 04:01:02 16° 299° (WNW) 04:04:09 437.125/150
KKS-1 28 Jun 04:02:37 04:07:00 69° 257° (WSW) 04:11:26 437.445
BEESAT 3 28 Jun 04:05:53 04:09:11 25° 313° (NW) 04:12:31 437.485
Gurwin Techsat 1B 28 Jun 04:08:01 04:12:34 29° 294° (WNW) 04:17:05 435.225
GONETS M04 28 Jun 04:12:29 04:18:28 20° 62° (ENE) 04:24:27
ITAMSAT 1 28 Jun 04:17:15 04:22:26 62° 288° (WNW) 04:27:34 435.822/435.867
STARS 28 Jun 04:36:48 04:41:05 58° 259° (W) 04:45:24 437.465
Cosmos 2499 28 Jun 04:37:10 04:43:03 19° 60° (ENE) 04:48:44 435.465 / 435.565
BEESAT 2 28 Jun 04:42:46 04:45:47 20° 315° (NW) 04:48:50 435.950
AIST 1 28 Jun 05:07:29 05:11:25 38° 268° (W) 05:15:21
CUBESAT XI-V 28 Jun 05:13:06 05:17:46 66° 74° (ENE) 05:22:26 437.345
AIST 2 28 Jun 05:17:47 05:21:50 62° 120° (ESE) 05:25:56 435.215
HORYU 2 28 Jun 05:18:46 05:22:55 36° 98° (E) 05:27:03 437.375
MOZHAYETS 4 28 Jun 05:28:01 05:29:40 12° 271° (W) 05:31:21
AO-85 28 Jun 05:33:46 05:37:22 22° 42° (NE) 05:40:44 145.980
AO-7 28 Jun 05:37:32 05:45:43 59° 295° (WNW) 05:53:50 29.400- 29.500
NOAA 15 28 Jun 05:45:08 05:48:02 15° 90° (E) 05:50:54 137.62
GONETS M04 28 Jun 06:07:48 06:16:34 90° 239° (WSW) 06:25:20
NOAA 18 28 Jun 06:08:33 06:12:36 20° 93° (E) 06:16:37 137.9125
Cubesat XI-IV 28 Jun 06:18:59 06:23:12 23° 93° (E) 06:27:25 437.490
STRAND 1 28 Jun 06:19:12 06:23:25 26° 65° (ENE) 06:27:39 437.568
CUSAT 1 28 Jun 06:21:54 06:26:58 20° 86° (E) 06:31:36 437.405
Cosmos 2499 28 Jun 06:28:45 06:37:38 85° 82° (E) 06:45:57 435.465 / 435.565
DANDE 28 Jun 06:39:48 06:43:58 15° 80° (E) 06:48:01 436.750
LilacSat-2 28 Jun 06:49:49 06:53:31 41° 98° (E) 06:57:13 437.200
CUTE-I 28 Jun 06:52:53 06:58:04 47° 99° (E) 07:03:13 437.470
CUBESAT XI-V 28 Jun 06:53:26 06:55:34 13° 270° (W) 06:57:44 437.345
HORYU 2 28 Jun 06:55:45 06:59:16 23° 294° (WNW) 07:02:46 437.375
AIST 2 28 Jun 06:58:00 07:00:43 17° 318° (NW) 07:03:27 435.215
BRITE-PL 28 Jun 07:00:56 07:05:06 81° 103° (ESE) 07:09:17 437.365/2234.400
DOVE 4 28 Jun 07:03:37 07:06:33 17° 93° (E) 07:09:32 437.250
AO-85 28 Jun 07:13:48 07:18:08 48° 243° (WSW) 07:22:06 145.980
NOAA 15 28 Jun 07:23:04 07:28:18 69° 287° (WNW) 07:33:30 137.62
AO-7 28 Jun 07:32:45 07:36:45 14° 316° (NW) 07:40:45 29.400- 29.500
GOMX 1 28 Jun 07:37:18 07:41:31 88° 104° (ESE) 07:45:53 467.674
HO-68 28 Jun 07:39:03 07:43:48 18° 90° (E) 07:48:32 435.675
PHONESAT 2.4 28 Jun 07:40:15 07:43:03 32° 161° (SSE) 07:45:50 2401.200-2431.200
NOAA 18 28 Jun 07:48:09 07:53:35 56° 290° (WNW) 07:58:59 137.9125
CUTE 1.7 + AOD 2 28 Jun 07:51:13 07:53:23 14° 90° (E) 07:55:32 437.475
SEEDS 28 Jun 07:57:10 07:58:14 11° 89° (E) 07:59:18 437.485
STRAND 1 28 Jun 07:57:35 08:02:22 40° 262° (W) 08:07:13 437.568
Cubesat XI-IV 28 Jun 07:58:20 08:03:30 47° 290° (WNW) 08:08:37 437.490
CUSAT 1 28 Jun 08:00:41 08:08:34 82° 280° (W) 08:15:13 437.405
CINEMA 3 28 Jun 08:02:47 08:06:26 23° 95° (E) 08:10:12 145.822/145.860
GONETS M04 28 Jun 08:06:47 08:12:06 18° 283° (WNW) 08:17:26
DANDE 28 Jun 08:17:21 08:25:43 72° 96° (E) 08:33:30 436.750
Cosmos 2499 28 Jun 08:23:43 08:29:30 20° 283° (WNW) 08:35:07 435.465 / 435.565
LilacSat-2 28 Jun 08:25:13 08:27:29 15° 294° (WNW) 08:29:45 437.200
PRISM 28 Jun 08:30:37 08:34:46 81° 76° (ENE) 08:38:57 437.425
CUTE-I 28 Jun 08:33:34 08:37:48 24° 296° (WNW) 08:42:03 437.470
ISS 28 Jun 08:35:45 08:38:36 28° 136° (SE) 08:41:27 145.825
AAUSAT CUBESAT 2 28 Jun 08:36:19 08:39:04 17° 92° (E) 08:41:48 437.432
DOVE 4 28 Jun 08:40:20 08:44:25 42° 288° (WNW) 08:48:41 437.250
UWE-3 28 Jun 08:52:37 08:55:37 17° 92° (E) 08:58:38 435.000/436.395/437.385
M-CUBED/EXP-1 PRIME 28 Jun 09:02:51 09:05:09 15° 99° (E) 09:07:32 437.505
CANX-2 28 Jun 09:05:09 09:09:28 77° 283° (WNW) 09:13:43 2200.000
TIGRISAT 28 Jun 09:08:16 09:10:18 13° 62° (ENE) 09:12:21 435.000
COMPASS 1 28 Jun 09:08:53 09:13:00 50° 100° (E) 09:17:02 437.405
UNISAT 6 28 Jun 09:12:37 09:15:11 16° 63° (ENE) 09:17:47 437.425
PHONESAT 2.4 28 Jun 09:16:24 09:19:27 66° 177° (S) 09:22:31 2401.200-2431.200
HO-68 28 Jun 09:25:02 09:32:16 82° 288° (WNW) 09:39:28 435.675
CUTE 1.7 + AOD 2 28 Jun 09:25:21 09:29:33 52° 286° (WNW) 09:33:41 437.475
SEEDS 28 Jun 09:30:09 09:34:22 65° 286° (WNW) 09:38:32 437.485
CUBEBUG 2 28 Jun 09:39:21 09:43:58 75° 102° (ESE) 09:48:40 437.445
CINEMA 3 28 Jun 09:39:29 09:43:37 36° 289° (WNW) 09:47:55 145.822/145.860
RS-15 28 Jun 09:44:50 09:45:50 10° 91° (E) 09:46:50 29.354- 29.394
CUSAT 1 28 Jun 09:46:52 09:51:15 16° 294° (WNW) 09:55:16 437.405
ANTELSAT 28 Jun 09:50:45 09:54:43 37° 70° (ENE) 09:58:48 437.575/2403.000
AUBIESAT-1 28 Jun 09:57:01 10:00:52 50° 106° (ESE) 10:04:58 437.475
DANDE 28 Jun 10:02:09 10:09:04 28° 292° (WNW) 10:15:32 436.750
ZACube-1 28 Jun 10:07:43 10:12:16 69° 102° (ESE) 10:16:50 437.345
AAUSAT CUBESAT 2 28 Jun 10:10:49 10:14:43 39° 288° (WNW) 10:18:35 437.432
ISS 28 Jun 10:11:53 10:14:57 38° 333° (NNW) 10:18:03 145.825
Oscar 11 28 Jun 10:18:38 10:23:02 86° 280° (W) 10:27:22 145.826/435.025
FUNcube-1 28 Jun 10:25:32 10:30:06 82° 284° (WNW) 10:34:40 145.935
DELFI C3 28 Jun 10:25:54 10:29:48 51° 99° (E) 10:33:40 145.870
UWE-3 28 Jun 10:27:53 10:32:19 49° 287° (WNW) 10:36:48 435.000/436.395/437.385
M-CUBED/EXP-1 PRIME 28 Jun 10:36:07 10:39:49 46° 292° (WNW) 10:43:48 437.505
TIGRISAT 28 Jun 10:42:12 10:46:26 62° 260° (W) 10:50:48 435.000
BEESAT 3 28 Jun 10:44:48 10:48:02 23° 46° (NE) 10:51:16 437.485
COMPASS 1 28 Jun 10:45:44 10:48:08 15° 296° (WNW) 10:50:30 437.405
UNISAT 6 28 Jun 10:47:17 10:51:28 51° 260° (W) 10:55:46 437.425
PCSat 28 Jun 10:47:29 10:52:27 35° 51° (NE) 10:57:23 145.827
BUGSAT 1 28 Jun 10:50:56 10:52:12 11° 62° (ENE) 10:53:29 437.445
PHONESAT 2.4 28 Jun 10:52:58 10:55:56 44° 194° (SSW) 10:58:54 2401.200-2431.200
NANOSAT C BR1 28 Jun 11:05:05 11:08:57 38° 71° (ENE) 11:12:51 145.865
QB50P1 28 Jun 11:07:45 11:11:42 43° 72° (ENE) 11:15:42 145.935-145.965
ESTCUBE 1 28 Jun 11:10:41 11:12:54 13° 90° (E) 11:15:06 437.505/2401.250
POPSAT HIP 1 28 Jun 11:10:53 11:14:53 46° 72° (ENE) 11:18:55 437.405
HO-68 28 Jun 11:14:35 11:18:55 17° 307° (NW) 11:23:15 435.675
CUBEBUG 2 28 Jun 11:18:01 11:20:00 13° 298° (WNW) 11:22:00 437.445
JAS-2 28 Jun 11:19:42 11:25:39 26° 62° (ENE) 11:31:10 435.910
YUBILEINY 28 Jun 11:19:53 11:24:29 16° 75° (ENE) 11:29:07 435.215
BEESAT 2 28 Jun 11:21:41 11:25:16 30° 49° (NE) 11:28:48 435.950
QB50P2 28 Jun 11:22:55 11:27:05 69° 74° (ENE) 11:31:17 145.880/145.840
HUMSAT D 28 Jun 11:24:24 11:28:44 74° 284° (WNW) 11:33:01 437.325/437.525
POLYITAN 1 28 Jun 11:25:33 11:29:43 71° 74° (ENE) 11:33:55 437.675
DUCHIFAT 1 28 Jun 11:25:34 11:29:40 62° 74° (ENE) 11:33:48 145.980
ANTELSAT 28 Jun 11:28:27 11:31:35 19° 267° (W) 11:34:46 437.575/2403.000
Cosmos 2491 28 Jun 11:29:32 11:37:56 48° 75° (ENE) 11:46:15 435.465 / 435.565
AUBIESAT-1 28 Jun 11:32:46 11:35:03 15° 299° (WNW) 11:37:24 437.475
DX 1 28 Jun 11:38:17 11:39:52 12° 90° (E) 11:41:28 434.975-435.025
RS-15 28 Jun 11:44:19 11:55:17 58° 112° (ESE) 12:06:50 29.354- 29.394
ZACube-1 28 Jun 11:45:49 11:47:59 13° 298° (WNW) 11:50:09 437.345
ISS 28 Jun 11:49:56 11:52:04 16° 353° (N) 11:54:13 145.825
Oscar 19 28 Jun 11:58:20 12:00:51 14° 59° (ENE) 12:03:22 437.125/150
DELFI C3 28 Jun 12:02:16 12:04:13 13° 296° (WNW) 12:06:11 145.870
CUBEBUG 1 28 Jun 12:03:20 12:07:14 32° 97° (E) 12:11:06 437.445
VELOX 1 28 Jun 12:10:25 12:14:27 35° 98° (E) 12:18:29 145.980
O/OREOS (USA 219) 28 Jun 12:14:39 12:18:48 36° 61° (ENE) 12:22:57 437.305
BEESAT 3 28 Jun 12:22:11 12:25:47 34° 244° (WSW) 12:29:22 437.485
BUGSAT 1 28 Jun 12:23:05 12:27:04 63° 259° (W) 12:31:03 437.445
PHONESAT 2.4 28 Jun 12:30:24 12:32:06 14° 209° (SSW) 12:33:48 2401.200-2431.200
PCSat 28 Jun 12:30:55 12:35:50 36° 249° (WSW) 12:40:44 145.827
Cosmos 2504 28 Jun 12:39:59 12:44:18 15° 74° (ENE) 12:48:43 435.465 / 435.565
NANOSAT C BR1 28 Jun 12:41:59 12:44:50 18° 267° (W) 12:47:42 145.865
QB50P1 28 Jun 12:45:08 12:47:42 16° 268° (W) 12:50:18 145.935-145.965
50 SAT 28 Jun 12:45:27 12:49:10 74° 283° (WNW) 12:52:49 437.505
ESTCUBE 1 28 Jun 12:45:39 12:50:05 58° 287° (WNW) 12:54:28 437.505/2401.250
POPSAT HIP 1 28 Jun 12:48:32 12:50:55 15° 268° (W) 12:53:20 437.405
AISAT 28 Jun 12:51:00 12:55:24 79° 284° (WNW) 12:59:47 437.250
UKube-1 28 Jun 12:52:47 12:57:05 64° 102° (ESE) 13:01:21 .
SPROUT 28 Jun 12:54:57 12:59:07 48° 99° (E) 13:03:15 437.525
AO-7 28 Jun 12:59:33 13:01:36 11° 40° (NE) 13:03:39 29.400- 29.500
BEESAT 2 28 Jun 12:59:40 13:03:00 25° 246° (WSW) 13:06:18 435.950
JAS-2 28 Jun 13:02:32 13:10:11 68° 258° (WSW) 13:17:12 435.910
DUCHIFAT 1 28 Jun 13:04:37 13:05:46 11° 270° (W) 13:06:56 145.980
YUBILEINY 28 Jun 13:11:06 13:19:48 82° 95° (E) 13:28:35 435.215
DX 1 28 Jun 13:12:10 13:16:28 62° 286° (WNW) 13:20:44 434.975-435.025
Cosmos 2491 28 Jun 13:26:46 13:34:31 38° 275° (W) 13:42:14 435.465 / 435.565
ISS 28 Jun 13:27:03 13:29:26 19° 13° (NNE) 13:31:50 145.825
Oscar 19 28 Jun 13:34:19 13:39:29 82° 258° (WSW) 13:44:39 437.125/150
AIST 2 28 Jun 13:38:45 13:42:46 45° 52° (NE) 13:46:46 435.215
CUBEBUG 1 28 Jun 13:39:56 13:43:20 23° 293° (WNW) 13:46:44 437.445
VELOX 1 28 Jun 13:47:20 13:50:43 22° 294° (WNW) 13:54:06 145.980
Gurwin Techsat 1B 28 Jun 13:49:09 13:54:22 61° 72° (ENE) 13:59:38 435.225
O/OREOS (USA 219) 28 Jun 13:54:32 13:57:59 22° 258° (WSW) 14:01:25 437.305
RS-15 28 Jun 13:56:59 14:08:03 49° 317° (NW) 14:19:46 29.354- 29.394
ITAMSAT 1 28 Jun 13:57:13 14:01:33 28° 65° (ENE) 14:05:56 435.822/435.867
TISAT 1 28 Jun 14:16:10 14:20:23 83° 287° (WNW) 14:24:36 437.305
Cosmos 2504 28 Jun 14:28:00 14:36:05 80° 95° (E) 14:44:48 435.465 / 435.565
UKube-1 28 Jun 14:30:38 14:32:36 13° 298° (WNW) 14:34:33 .
SPROUT 28 Jun 14:32:02 14:34:41 16° 296° (WNW) 14:37:18 437.525
SWISSCUBE 28 Jun 14:36:25 14:40:44 32° 97° (E) 14:44:59 437.505
AO-7 28 Jun 14:44:28 14:52:16 47° 62° (ENE) 15:00:07 29.400- 29.500
JAS-2 28 Jun 14:53:51 14:56:07 11° 274° (W) 14:58:20 435.910
BEESAT 28 Jun 15:01:27 15:06:10 52° 100° (E) 15:10:49 436.000
ITUPSAT 1 28 Jun 15:02:22 15:07:05 52° 100° (E) 15:11:45 437.325
ISS 28 Jun 15:03:06 15:06:22 64° 32° (NNE) 15:09:37 145.825
YUBILEINY 28 Jun 15:11:15 15:17:40 22° 297° (WNW) 15:24:11 435.215
AIST 2 28 Jun 15:18:06 15:20:55 18° 249° (WSW) 15:23:44 435.215
Gurwin Techsat 1B 28 Jun 15:31:19 15:34:44 17° 269° (W) 15:38:10 435.225
ITAMSAT 1 28 Jun 15:36:00 15:40:50 38° 262° (W) 15:45:43 435.822/435.867
MOZHAYETS 4 28 Jun 15:43:18 15:46:12 16° 91° (E) 15:49:05
KKS-1 28 Jun 15:53:44 15:57:10 21° 94° (E) 16:00:34 437.445
SO-50 28 Jun 15:56:21 16:01:07 56° 119° (ESE) 16:05:54 436.795
SWISSCUBE 28 Jun 16:14:20 16:18:24 28° 293° (WNW) 16:22:27 437.505
RS-15 28 Jun 16:15:16 16:24:34 25° 350° (N) 16:34:09 29.354- 29.394
HORYU 2 28 Jun 16:17:06 16:21:07 35° 69° (ENE) 16:25:10 437.375
Cosmos 2504 28 Jun 16:24:23 16:30:35 23° 297° (WNW) 16:37:05 435.465 / 435.565
STARS 28 Jun 16:26:08 16:29:43 24° 95° (E) 16:33:17 437.465
BRITE-PL 28 Jun 16:37:00 16:38:37 12° 62° (ENE) 16:40:12 437.365/2234.400
AO-7 28 Jun 16:37:19 16:45:04 42° 261° (W) 16:52:54 29.400- 29.500
CUTE-I 28 Jun 16:39:29 16:41:11 12° 56° (ENE) 16:42:54 437.470
BEESAT 28 Jun 16:40:16 16:43:32 19° 297° (WNW) 16:46:48 436.000
ISS 28 Jun 16:40:29 16:42:29 15° 228° (SW) 16:44:27 145.825
ITUPSAT 1 28 Jun 16:41:13 16:44:31 19° 297° (WNW) 16:47:47 437.325
NOAA 15 28 Jun 17:04:59 17:09:19 26° 65° (ENE) 17:13:40 137.62
CUBESAT XI-V 28 Jun 17:10:36 17:13:24 16° 91° (E) 17:16:10 437.345
GOMX 1 28 Jun 17:12:15 17:12:46 10° 62° (ENE) 17:13:17 467.674
GONETS M04 28 Jun 17:15:46 17:21:46 21° 79° (ENE) 17:27:45
Cosmos 2499 28 Jun 17:17:45 17:21:06 13° 72° (ENE) 17:24:30 435.465 / 435.565
MOZHAYETS 4 28 Jun 17:19:08 17:23:39 51° 288° (WNW) 17:28:07
KKS-1 28 Jun 17:29:45 17:33:49 36° 290° (WNW) 17:37:53 437.445
LilacSat-2 28 Jun 17:32:42 17:35:39 22° 68° (ENE) 17:38:37 437.200
NOAA 18 28 Jun 17:34:52 17:39:55 40° 67° (ENE) 17:45:01 137.9125
AIST 1 28 Jun 17:36:30 17:40:49 68° 280° (W) 17:45:07
SO-50 28 Jun 17:38:01 17:41:56 23° 317° (NW) 17:45:50 436.795
Cubesat XI-IV 28 Jun 17:41:07 17:46:02 39° 68° (ENE) 17:51:00 437.490
HORYU 2 28 Jun 17:54:19 17:57:45 22° 266° (W) 18:01:12 437.375
STARS 28 Jun 18:02:11 18:06:05 32° 291° (WNW) 18:10:00 437.465
HO-68 28 Jun 18:09:49 18:13:56 16° 52° (NE) 18:18:02 435.675
DOVE 4 28 Jun 18:10:09 18:13:04 18° 66° (ENE) 18:15:56 437.250
BRITE-PL 28 Jun 18:11:27 18:16:33 85° 258° (WSW) 18:21:16 437.365/2234.400
CUTE-I 28 Jun 18:14:59 18:20:20 79° 74° (ENE) 18:25:43 437.470
RS-15 28 Jun 18:32:01 18:42:29 31° 25° (NNE) 18:53:01 29.354- 29.394
CUSAT 1 28 Jun 18:37:56 18:41:38 60° 77° (ENE) 18:44:34 437.405
NOAA 15 28 Jun 18:43:53 18:48:53 41° 262° (W) 18:53:52 137.62
CUTE 1.7 + AOD 2 28 Jun 18:45:31 18:46:51 11° 61° (ENE) 18:48:10 437.475
GOMX 1 28 Jun 18:45:39 18:50:19 83° 259° (W) 18:54:41 467.674
CUBESAT XI-V 28 Jun 18:46:35 18:51:06 52° 287° (WNW) 18:55:33 437.345
DANDE 28 Jun 19:00:00 19:04:50 42° 72° (ENE) 19:08:28 436.750
Cosmos 2499 28 Jun 19:04:12 19:12:24 70° 93° (E) 19:21:09 435.465 / 435.565
CINEMA 3 28 Jun 19:05:41 19:08:42 20° 67° (ENE) 19:11:45 145.822/145.860
LilacSat-2 28 Jun 19:06:39 19:09:49 25° 264° (W) 19:13:03 437.200
GONETS M04 28 Jun 19:08:47 19:17:30 80° 278° (W) 19:26:15
NOAA 18 28 Jun 19:16:01 19:20:40 28° 264° (W) 19:25:20 137.9125
Cubesat XI-IV 28 Jun 19:21:41 19:26:11 27° 265° (W) 19:30:44 437.490
AAUSAT CUBESAT 2 28 Jun 19:27:54 19:29:53 13° 63° (ENE) 19:31:52 437.432
DOVE 4 28 Jun 19:46:28 19:50:33 39° 262° (W) 19:54:30 437.250
M-CUBED/EXP-1 PRIME 28 Jun 19:50:38 19:52:42 16° 61° (ENE) 19:54:47 437.505
UWE-3 28 Jun 19:51:09 19:53:16 14° 63° (ENE) 19:55:24 435.000/436.395/437.385
HO-68 28 Jun 19:53:22 20:00:31 78° 71° (ENE) 20:07:43 435.675
CANX-2 28 Jun 19:57:47 20:02:03 77° 77° (ENE) 20:06:22 2200.000
CUTE-I 28 Jun 19:58:33 20:00:59 13° 271° (W) 20:03:26 437.470
COMPASS 1 28 Jun 19:59:52 20:03:42 35° 71° (ENE) 20:07:33 437.405
STRAND 1 28 Jun 20:07:12 20:12:21 68° 102° (ESE) 20:17:28 437.568
PRISM 28 Jun 20:15:09 20:15:19 10° 90° (E) 20:15:29 437.425
CUTE 1.7 + AOD 2 28 Jun 20:17:48 20:22:04 73° 258° (WSW) 20:26:23 437.475
SEEDS 28 Jun 20:21:40 20:25:55 89° 87° (E) 20:30:12 437.485
CUBEBUG 2 28 Jun 20:37:54 20:41:59 62° 75° (ENE) 20:46:13 437.445
CINEMA 3 28 Jun 20:41:53 20:45:39 33° 263° (W) 20:49:27 145.822/145.860
AUBIESAT-1 28 Jun 20:44:15 20:47:30 63° 69° (ENE) 20:50:48 437.475
DANDE 28 Jun 20:44:21 20:46:49 14° 280° (W) 20:48:59 436.750
RS-15 28 Jun 20:45:07 20:57:32 75° 54° (NE) 21:09:48 29.354- 29.394
Cosmos 2499 28 Jun 20:59:27 21:06:20 27° 295° (WNW) 21:13:33 435.465 / 435.565
AAUSAT CUBESAT 2 28 Jun 21:00:44 21:04:52 59° 260° (W) 21:09:02 437.432
ZACube-1 28 Jun 21:03:48 21:07:53 53° 73° (ENE) 21:12:06 437.345
GONETS M04 28 Jun 21:10:39 21:15:52 17° 301° (WNW) 21:21:06
DELFI C3 28 Jun 21:12:09 21:15:43 31° 70° (ENE) 21:19:18 145.870
Oscar 11 28 Jun 21:13:19 21:17:38 75° 77° (ENE) 21:22:00 145.826/435.025
FUNcube-1 28 Jun 21:21:13 21:25:24 79° 74° (ENE) 21:29:43 145.935
M-CUBED/EXP-1 PRIME 28 Jun 21:24:18 21:27:06 26° 258° (WSW) 21:29:56 437.505
UWE-3 28 Jun 21:25:07 21:29:13 56° 259° (W) 21:33:27 435.000/436.395/437.385
AO-85 28 Jun 21:26:47 21:32:03 53° 118° (ESE) 21:37:11 145.980
COMPASS 1 28 Jun 21:36:15 21:39:21 20° 267° (W) 21:42:28 437.405
HO-68 28 Jun 21:44:04 21:48:56 19° 269° (W) 21:53:51 435.675
PRISM 28 Jun 21:47:00 21:51:04 64° 285° (WNW) 21:55:04 437.425
STRAND 1 28 Jun 21:47:49 21:50:57 16° 299° (WNW) 21:54:05 437.568
ESTCUBE 1 28 Jun 22:10:53 22:13:20 14° 62° (ENE) 22:15:46 437.505/2401.250
HUMSAT D 28 Jun 22:15:36 22:19:46 78° 76° (ENE) 22:24:01 437.325/437.525
AISAT 28 Jun 22:16:28 22:17:00 10° 60° (ENE) 22:17:32 437.250
CUBEBUG 2 28 Jun 22:17:56 22:19:05 11° 271° (W) 22:20:15 437.445
TIGRISAT 28 Jun 22:33:20 22:37:17 27° 95° (E) 22:41:15 435.000
DX 1 28 Jun 22:34:39 22:36:22 12° 61° (ENE) 22:38:06 434.975-435.025
UNISAT 6 28 Jun 22:38:22 22:42:32 32° 96° (E) 22:46:44 437.425
ZACube-1 28 Jun 22:42:33 22:44:33 13° 270° (W) 22:46:34 437.345
DELFI C3 28 Jun 22:47:35 22:50:37 20° 266° (W) 22:53:40 145.870
SO-50 28 Jun 22:49:18 22:50:38 11° 31° (NNE) 22:51:58 436.795
RS-15 28 Jun 22:58:37 23:09:01 34° 256° (WSW) 23:19:21 29.354- 29.394
CUBEBUG 1 28 Jun 22:59:41 23:03:26 29° 69° (ENE) 23:07:11 437.445
VELOX 1 28 Jun 23:08:03 23:12:00 33° 69° (ENE) 23:15:57 145.980
AO-85 28 Jun 23:08:14 23:12:49 28° 315° (NW) 23:17:15 145.980
QB50P2 28 Jun 23:09:52 23:11:02 11° 90° (E) 23:12:12 145.880/145.840
POLYITAN 1 28 Jun 23:12:20 23:13:41 11° 90° (E) 23:15:02 437.675
ANTELSAT 28 Jun 23:17:50 23:22:30 82° 103° (ESE) 23:27:13 437.575/2403.000
YUBILEINY 28 Jun 23:20:59 23:29:15 42° 73° (ENE) 23:37:28 435.215
50 SAT 28 Jun 23:23:20 23:26:55 49° 74° (ENE) 23:30:33 437.505
ESTCUBE 1 28 Jun 23:45:07 23:49:37 62° 259° (W) 23:54:08 437.505/2401.250
UKube-1 28 Jun 23:47:25 23:51:37 56° 73° (ENE) 23:55:51 .
AISAT 28 Jun 23:48:23 23:52:48 85° 257° (WSW) 23:57:13 437.250
SPROUT 28 Jun 23:48:49 23:52:44 38° 71° (ENE) 23:56:41 437.525
BUGSAT 1 29 Jun 00:05:15 00:07:59 17° 93° (E) 00:10:44 437.445
DX 1 29 Jun 00:07:40 00:11:59 70° 257° (WSW) 00:16:21 434.975-435.025
TIGRISAT 29 Jun 00:09:50 00:13:57 32° 291° (WNW) 00:18:05 435.000
JAS-2 29 Jun 00:15:01 00:17:35 13° 87° (E) 00:20:04 435.910
UNISAT 6 29 Jun 00:15:13 00:19:07 27° 292° (WNW) 00:23:03 437.425
Cosmos 2504 29 Jun 00:20:34 00:28:23 33° 69° (ENE) 00:35:54 435.465 / 435.565
NANOSAT C BR1 29 Jun 00:24:12 00:28:27 69° 101° (ESE) 00:32:41 145.865
QB50P1 29 Jun 00:27:20 00:31:36 79° 101° (ESE) 00:35:52 145.935-145.965
SO-50 29 Jun 00:27:37 00:32:13 54° 53° (NE) 00:36:40 436.795
POPSAT HIP 1 29 Jun 00:30:34 00:34:52 84° 103° (ESE) 00:39:08 437.405
Cosmos 2491 29 Jun 00:30:52 00:39:19 55° 90° (E) 00:47:46 435.465 / 435.565
CUBEBUG 1 29 Jun 00:36:03 00:39:41 25° 265° (W) 00:43:20 437.445
QB50P2 29 Jun 00:43:01 00:47:16 65° 285° (WNW) 00:51:30 145.880/145.840
DUCHIFAT 1 29 Jun 00:44:41 00:48:55 74° 284° (WNW) 00:53:09 145.980
VELOX 1 29 Jun 00:45:00 00:48:30 23° 265° (W) 00:52:01 145.980
POLYITAN 1 29 Jun 00:45:39 00:49:53 64° 286° (WNW) 00:54:07 437.675
ANTELSAT 29 Jun 00:56:51 00:58:33 12° 299° (WNW) 01:00:15 437.575/2403.000
50 SAT 29 Jun 00:59:50 01:00:53 11° 269° (W) 01:01:57 437.505
TISAT 1 29 Jun 01:07:51 01:12:00 75° 74° (ENE) 01:16:10 437.305
YUBILEINY 29 Jun 01:17:52 01:26:03 45° 273° (W) 01:34:15 435.215
SPROUT 29 Jun 01:25:51 01:28:49 18° 267° (W) 01:31:49 437.525
UKube-1 29 Jun 01:25:57 01:28:01 13° 269° (W) 01:30:04 .
PCSat 29 Jun 01:30:05 01:34:35 27° 108° (ESE) 01:39:06 145.827
BUGSAT 1 29 Jun 01:39:41 01:43:29 38° 289° (WNW) 01:47:20 437.445
SWISSCUBE 29 Jun 01:43:05 01:47:31 39° 69° (ENE) 01:51:59 437.505
Oscar 19 29 Jun 01:45:44 01:50:23 34° 97° (E) 01:55:00 437.125/150
JAS-2 29 Jun 01:57:49 02:03:29 73° 287° (WNW) 02:08:41 435.910
NANOSAT C BR1 29 Jun 02:02:06 02:03:37 12° 298° (WNW) 02:05:08 145.865
Gurwin Techsat 1B 29 Jun 02:05:36 02:09:49 23° 94° (E) 02:14:00 435.225
QB50P1 29 Jun 02:06:02 02:06:45 10° 299° (WNW) 02:07:28 145.935-145.965
BEESAT 29 Jun 02:08:00 02:12:42 62° 73° (ENE) 02:17:28 436.000
SO-50 29 Jun 02:09:11 02:12:14 18° 251° (WSW) 02:15:13 436.795
ITUPSAT 1 29 Jun 02:09:14 02:13:58 63° 73° (ENE) 02:18:45 437.325
BEESAT 3 29 Jun 02:12:54 02:16:24 32° 115° (ESE) 02:19:56 437.485
Cosmos 2504 29 Jun 02:13:34 02:22:14 59° 269° (W) 02:30:31 435.465 / 435.565
O/OREOS (USA 219) 29 Jun 02:27:17 02:31:26 38° 106° (ESE) 02:35:36 437.305
Cosmos 2491 29 Jun 02:28:48 02:36:31 34° 291° (WNW) 02:44:16 435.465 / 435.565
MOZHAYETS 4 29 Jun 02:45:47 02:48:46 17° 64° (ENE) 02:51:48
AO-7 29 Jun 02:49:05 02:51:39 12° 86° (E) 02:54:13 29.400- 29.500
BEESAT 2 29 Jun 02:51:09 02:54:56 46° 118° (ESE) 02:58:46 435.950
KKS-1 29 Jun 02:52:23 02:55:44 22° 66° (ENE) 02:59:06 437.445
